RADUGA 24 [-]

Last updated on Oct. 25, 2020, 5:56 a.m. UTC

1 20367U 89098A   20298.13557463  .00000099  00000-0  00000+0 0  9994
2 20367  14.6153 350.2359 0001735  13.4881 122.4173  1.00266638112352
UTC
Height (km)
Latitude
Longitude
Inclination
Orbital Period
UTC large
Height (km)
Speed (km/s)
/
Latitude / Longitude
Inclination (degrees)
Orbital Period (minutes)
Azimuth
Elevation
Range (km)
Doppler Factor
iOS Compass Heading
iOS Angle

Next 30 passes for location: Hong Kong

Rise time Rise Azimuth (degrees) Set time Set Azimuth (degrees) Duration Max altitude (degrees)

No matching passes for this satellites